Content
SEND FEEDBACK

Daily
Averages
Monthly
Summary
United States of America

LAUGHLIN, NEVADA


Home > North America > United States > Nevada
Elevation: 1018 feet     Latitude: 35 10N     Longitude: 114 37W

WEATHER
 
SELECT A DAY
Number of Records: 189,175;   Date Range: 7/1/96 - 10/24/14
 
SHARE

PRINT THIS DATA

[ ← Previous Day ]
WEATHER ALMANAC - MAY 17, 2013
[ Next Day → ]
[ °C ]   °F
Weather ElementAverageHighLow
Temperature82.7 °F89.6 °F (2:35 pm)75.2 °F (5:35 am)
Dewpoint35.7 °F39.2 °F (9:15 am)32 °F (12:35 am)
Humidity18.9 %24 % (5:35 am)13 % (5:35 pm)
Barometer29.75 in29.82 in (9:15 am)29.69 in (12:35 am)
Wind Speed13.2 mph23 mph (2:35 pm)
Wind Gust31.1 mph (3:35 pm)
Weather ElementAverage
Visibility10 mi
Wind DirectionENE (80.4 °)

Weather ElementTotal
Precipitation---
Cooling Degree Days17.4 (Base 65)
Growing Degree Days32.4 (Base 50)
Averaged from 71 records on May 17, 2013
WEATHER CONDITIONS BREAKOUT
WIND DIRECTION BREAKOUT
WEATHER BY HOUR - MAY 17, 2013
[ °C ]   °F
Local TimeTemperatureDewpointHumidityBarometerVisibilityWind DirectionWind SpeedGust SpeedPrecipitationEventsConditions
12:35 AM82.4 °F32.0 °F16 %29.69 in10.0 miNorthClear
12:55 AM82.4 °F32.0 °F16 %29.71 in10.0 miNorthClear
1:15 AM82.4 °F32.0 °F16 %29.71 in10.0 miNorthClear
1:35 AM82.4 °F32.0 °F16 %29.71 in10.0 miNorthClear
1:55 AM80.6 °F32.0 °F17 %29.71 in10.0 miNorthClear
2:15 AM80.6 °F32.0 °F17 %29.71 in10.0 miNorthClear
2:35 AM80.6 °F33.8 °F18 %29.71 in10.0 miNorthClear
2:55 AM80.6 °F33.8 °F18 %29.71 in10.0 miNorthClear
3:15 AM78.8 °F35.6 °F21 %29.71 in10.0 miNorthClear
3:35 AM78.8 °F35.6 °F21 %29.71 in10.0 miNorthClear
3:55 AM77.0 °F35.6 °F22 %29.71 in10.0 miNorthClear
4:15 AM77.0 °F35.6 °F22 %29.72 in10.0 miNorthClear
4:35 AM77.0 °F35.6 °F22 %29.73 in10.0 miNorthClear
4:55 AM77.0 °F35.6 °F22 %29.73 in10.0 miNorthClear
5:15 AM77.0 °F35.6 °F22 %29.74 in10.0 miNorthClear
5:35 AM75.2 °F35.6 °F24 %29.74 in10.0 miNorthClear
5:55 AM75.2 °F35.6 °F24 %29.75 in10.0 miNorthClear
6:15 AM77.0 °F35.6 °F22 %29.76 in10.0 miNorthClear
6:35 AM77.0 °F37.4 °F24 %29.77 in10.0 miNorthClear
6:55 AM77.0 °F37.4 °F24 %29.78 in10.0 miNorthClear
7:15 AM78.8 °F37.4 °F23 %29.78 in10.0 miNorthClear
7:35 AM78.8 °F37.4 °F23 %29.78 in10.0 miNorthClear
7:55 AM78.8 °F37.4 °F23 %29.79 in10.0 miNorthClear
8:15 AM78.8 °F37.4 °F23 %29.79 in10.0 miNorthClear
8:35 AM78.8 °F37.4 °F23 %29.79 in10.0 miNorthClear
8:55 AM80.6 °F37.4 °F21 %29.80 in10.0 miNorthClear
9:15 AM80.6 °F39.2 °F23 %29.82 in10.0 miNorthClear
9:35 AM78.8 °F37.4 °F23 %29.82 in10.0 miNorthClear
9:55 AM78.8 °F37.4 °F23 %29.82 in10.0 miNorthClear
10:15 AM80.6 °F37.4 °F21 %29.82 in10.0 miNorthClear
10:35 AM80.6 °F37.4 °F21 %29.81 in10.0 miNorthClear
10:55 AM80.6 °F35.6 °F20 %29.82 in10.0 miNorthClear
11:15 AM80.6 °F37.4 °F21 %29.81 in10.0 miNorthClear
11:35 AM80.6 °F37.4 °F21 %29.81 in10.0 miNorthClear
11:55 AM82.4 °F37.4 °F20 %29.81 in10.0 miNorthPartly Cloudy
12:15 PM82.4 °F37.4 °F20 %29.81 in10.0 miNorthClear
12:35 PM82.4 °F37.4 °F20 %29.80 in10.0 miNorthPartly Cloudy
12:55 PM84.2 °F39.2 °F20 %29.80 in10.0 miNorthClear
1:15 PM86.0 °F39.2 °F19 %29.79 in10.0 miNorthClear
1:35 PM86.0 °F39.2 °F19 %29.78 in10.0 miNorthClear
1:55 PM86.0 °F39.2 °F19 %29.77 in10.0 miSW (220°)11.5 mph16.1 mphClear
2:15 PM87.8 °F37.4 °F17 %29.76 in10.0 miSouth (190°)16.1 mph25.3 mphClear
2:35 PM89.6 °F37.4 °F16 %29.74 in10.0 miSouth (170°)23.0 mph28.8 mphClear
2:55 PM89.6 °F35.6 °F15 %29.74 in10.0 miSSW (210°)19.6 mph27.6 mphClear
3:15 PM89.6 °F35.6 °F15 %29.74 in10.0 miSouth (190°)19.6 mph29.9 mphClear
3:35 PM89.6 °F35.6 °F15 %29.73 in10.0 miSSE (150°)17.3 mph31.1 mphClear
3:55 PM89.6 °F35.6 °F15 %29.72 in10.0 miSSE (150°)20.7 mph26.5 mphClear
4:15 PM89.6 °F35.6 °F15 %29.72 in10.0 miSouth (180°)16.1 mph29.9 mphClear
4:35 PM89.6 °F35.6 °F15 %29.72 in10.0 miSouth (170°)15.0 mph25.3 mphClear
4:55 PM89.6 °F35.6 °F15 %29.72 in10.0 miSSW (210°)13.8 mph20.7 mphClear
5:15 PM89.6 °F35.6 °F15 %29.72 in10.0 miSouth (180°)16.1 mph26.5 mphClear
5:35 PM89.6 °F32.0 °F13 %29.72 in10.0 miSSW (210°)17.3 mph23.0 mphClear
5:55 PM89.6 °F32.0 °F13 %29.72 in10.0 miSSW (200°)17.3 mphClear
6:15 PM89.6 °F32.0 °F13 %29.71 in10.0 miSouth (190°)19.6 mphClear
6:35 PM89.6 °F33.8 °F14 %29.72 in10.0 miSouth (190°)12.7 mphClear
6:55 PM87.8 °F35.6 °F16 %29.72 in10.0 miSouth (190°)16.1 mph20.7 mphClear
7:15 PM87.8 °F35.6 °F16 %29.72 in10.0 miSouth (180°)16.1 mph19.6 mphClear
7:35 PM86.0 °F35.6 °F17 %29.72 in10.0 miSouth (180°)9.2 mph17.3 mphClear
7:55 PM86.0 °F35.6 °F17 %29.73 in10.0 miSouth (190°)11.5 mphClear
8:15 PM86.0 °F35.6 °F17 %29.73 in10.0 miSSW (210°)11.5 mphClear
8:35 PM86.0 °F35.6 °F17 %29.73 in10.0 miSW (230°)9.2 mphClear
8:55 PM84.2 °F35.6 °F18 %29.73 in10.0 miSouth (180°)8.1 mphClear
9:15 PM84.2 °F35.6 °F18 %29.74 in10.0 miSE (140°)9.2 mphClear
9:35 PM82.4 °F37.4 °F20 %29.76 in10.0 miSW (230°)6.9 mphClear
9:55 PM84.2 °F33.8 °F16 %29.77 in10.0 miSSW (210°)6.9 mphClear
10:15 PM82.4 °F33.8 °F17 %29.77 in10.0 miSW (220°)8.1 mphClear
10:35 PM82.4 °F33.8 °F17 %29.77 in10.0 miSSW (210°)4.6 mphClear
10:55 PM80.6 °F33.8 °F18 %29.78 in10.0 miSouth (170°)5.8 mphClear
11:15 PM78.8 °F33.8 °F20 %29.78 in10.0 miESE (110°)6.9 mphClear
11:35 PM78.8 °F33.8 °F20 %29.78 in10.0 miESE (120°)11.5 mphClear
11:55 PM77.0 °F33.8 °F21 %29.78 in10.0 miSE (130°)12.7 mphClear
Hourly data recorded from KIFP, located miles away from Laughlin, Nevada







STORIES FROM OUR PARTNERS